Weather Roundup
Issued by NWS

Home | Current Version | Previous Version | Text Only | Print | Product List | Glossary On
Versions: 1 2 3 4 5 6 7 8 9 10 11 12 13 14 15 16 17 18 19 20 21 22 23 24 25 26 27 28 29 30 31 32 33 34 35 36 37 38 39 40 41 42 43 44 45 46 47 48 49 50
000
NZUS99 KDVN 280310
HRRCWA
HOURLY WEATHER ROUNDUP
NATIONAL WEATHER SERVICE QUAD CITIES IA IL
900 PM CST SAT FEB 27 2021

Note: "Fair" indicates few or no clouds below 12,000 feet with
no significant weather and/or obstructions to visibility.

* - These stations are not NWS stations and are not subject to NWS
quality control.  Some stations do not report weather such as fog
and some only report TMP and DP in whole degrees Celsius, which are
then converted to Fahrenheit.

...NORTHEAST IOWA..................................................

CITY           SKY/WX    TMP DP  RH WIND       PRES   REMARKS
DECORAH *      CLOUDY    37  34  87 E9        29.90F WCI  31
DUBUQUE        CLEAR     38  32  79 E15       29.93F WCI  29
INDEPENDENCE * CLEAR     32  29  90 E12       29.90R WCI  23
OELWEIN *      CLEAR     36  30  80 SE13      29.91R WCI  27
WATERLOO       MOCLDY    36  30  79 SE8       29.91R WCI  30

...SOUTHWEST AND SOUTH CENTRAL WISCONSIN...........................

CITY           SKY/WX    TMP DP  RH WIND       PRES   REMARKS
BOSCOBEL       CLEAR     34  29  82 VRB3      29.97S
JANESVILLE *   MOCLDY    34  34 100 VRB6      30.00F WCI  29
LONE ROCK      CLEAR     32  28  85 E6        29.98S WCI  26
MINERAL POINT* CLEAR     36  32  87 SE9       29.96S WCI  29
MONROE *       CLEAR     35  31  87 E7        29.96F WCI  29
PRAIRIE DU CHI CLEAR     37  29  73 E6        29.95S WCI  32

...EAST CENTRAL IOWA...............................................

CITY           SKY/WX    TMP DP  RH WIND       PRES   REMARKS
CEDAR RAPIDS   CLEAR     33  29  85 E12       29.88F WCI  24
CLINTON *      CLEAR     35  34  96 E14       29.96S WCI  26
DAVENPORT      CLEAR     40  34  79 E12       29.96R WCI  33
IOWA CITY      CLEAR     40  33  76 SE8       29.92R WCI  34
MARSHALLTOWN   NOT AVBL
MONTICELLO *   CLEAR     37  36  93 SE10      29.92R WCI  30
MUSCATINE *    CLEAR     43  37  81 SE8       29.92F WCI  38
NEWTON *       CLEAR     37  36  93 E7        29.86R WCI  32
VINTON *       CLEAR     37  32  84 E8        29.90R WCI  30

...NORTHWEST ILLINOIS..............................................

CITY           SKY/WX    TMP DP  RH WIND       PRES   REMARKS
FREEPORT *     CLEAR     30  30 100 E8        30.00F FOG     WCI  22
MOLINE         CLEAR     42  35  76 SE13      29.94S WCI  35
PERU *           N/A     43  37  79 E8        30.00S WCI  39
ROCHELLE *     CLEAR     36  35  97 E10       29.99F WCI  28
ROCKFORD       PTCLDY    40  34  79 SE9       30.01F WCI  34
SAVANNA *      CLEAR     36  32  87 E7        29.96S WCI  30
STERLING/R.F.* CLEAR     31  30  96 E6        29.99R WCI  25

...SOUTHEAST IOWA AND NORTHEAST MISSOURI...........................

CITY           SKY/WX    TMP DP  RH WIND       PRES   REMARKS
BURLINGTON     PTCLDY    44  39  82 SE13      29.90F WCI  38
FAIRFIELD *    CLEAR     41  39  93 SE10      29.87S WCI  35
FORT MADISON * PTCLDY    46  39  76 SE14G20   29.89F WCI  40
KEOKUK *       MOCLDY    46  43  87 SE17      29.88F WCI  39
KIRKSVILLE     PTCLDY    47  38  71 SE15      29.83F WCI  41
KNOXVILLE *    CLEAR     39  34  81 E8        29.82S WCI  34
MT PLEASANT *  PTCLDY    43  37  81 SE10      29.88F WCI  37
OTTUMWA        CLEAR     39  34  82 E10       29.84S WCI  32
WASHINGTON *   CLEAR     37  37 100 SE14      29.88R WCI  29

...WESTERN ILLINOIS................................................

CITY           SKY/WX    TMP DP  RH WIND       PRES   REMARKS
GALESBURG *    PTCLDY    40  35  80 E7        29.95S WCI  36
MACOMB *       PTCLDY    43  40  86 SE12      29.95F WCI  37
PEORIA         PTCLDY    47  39  74 SE10G20   29.97F WCI  42
QUINCY         MOCLDY    47  40  76 SE15      29.89F WCI  41

END...




USA.gov is the U.S. government's official web portal to all federal, state and local government web resources and services.